When you browse on this site, cookies collect data to enhance your experience and personalize the content and advertising you see.
Visit our Privacy Policy to learn more. By continuing to use the site, you agree to this use of cookies and data.
  • In Hungary
  • List of Countries
  • For 7 days
  • Water Temperature
  • Satellite Maps
  • Weather Map
  • News
  • Weather Widgets
  • user-avatar
    Login

    Hourly Weather Ashdod

    Today, 16 July, Tuesday

    Time Temperature Precipitation Wind Pressure Humidity
    00:00 +25°C° 0 mm 1 mps 755 mmHg 82%
    01:00 +24°C° 0 mm 1 mps 755 mmHg 82%
    02:00 +24°C° 0 mm 1 mps 754 mmHg 82%
    03:00 +24°C° 0 mm 1 mps 755 mmHg 83%
    04:00 +24°C° 0 mm 1 mps 755 mmHg 85%
    05:00 +23°C° 0 mm 1 mps 755 mmHg 86%
    06:00 +25°C° 0 mm 1 mps 755 mmHg 78%
    07:00 +27°C° 0 mm 1 mps 755 mmHg 71%
    08:00 +29°C° 0 mm 1 mps 755 mmHg 63%
    09:00 +30°C° 0 mm 2 mps 755 mmHg 58%
    10:00 +31°C° 0 mm 3 mps 755 mmHg 53%
    11:00 +34°C° 0 mm 4 mps 755 mmHg 48%
    12:00 +34°C° 0 mm 4 mps 755 mmHg 46%
    13:00 +34°C° 0 mm 4 mps 754 mmHg 44%
    14:00 +35°C° 0 mm 4 mps 754 mmHg 43%
    15:00 +34°C° 0 mm 4 mps 754 mmHg 43%
    16:00 +34°C° 0 mm 4 mps 754 mmHg 44%
    17:00 +33°C° 0 mm 4 mps 753 mmHg 45%
    18:00 +31°C° 0 mm 3 mps 754 mmHg 52%
    19:00 +29°C° 0 mm 3 mps 754 mmHg 59%
    20:00 +27°C° 0 mm 2 mps 754 mmHg 66%
    21:00 +27°C° 0 mm 2 mps 754 mmHg 62%
    22:00 +27°C° 0 mm 3 mps 754 mmHg 59%
    23:00 +27°C° 0 mm 3 mps 753 mmHg 55%

    Tomorrow, 17 July, Wednesday

    Time Temperature Precipitation Wind Pressure Humidity
    00:00 +27°C° 0 mm 2 mps 753 mmHg 51%
    01:00 +28°C° 0 mm 2 mps 752 mmHg 46%
    02:00 +28°C° 0 mm 2 mps 752 mmHg 41%
    03:00 +28°C° 0 mm 2 mps 752 mmHg 39%
    04:00 +29°C° 0 mm 3 mps 751 mmHg 37%
    05:00 +29°C° 0 mm 3 mps 751 mmHg 35%
    06:00 +33°C° 0 mm 4 mps 751 mmHg 31%
    07:00 +36°C° 0 mm 4 mps 752 mmHg 26%
    08:00 +41°C° 0 mm 4 mps 752 mmHg 22%
    09:00 +42°C° 0 mm 5 mps 752 mmHg 21%
    10:00 +42°C° 0 mm 6 mps 751 mmHg 21%
    11:00 +44°C° 0 mm 7 mps 751 mmHg 20%
    12:00 +44°C° 0 mm 7 mps 751 mmHg 24%
    13:00 +43°C° 0 mm 7 mps 751 mmHg 28%
    14:00 +41°C° 0 mm 7 mps 751 mmHg 32%
    15:00 +40°C° 0 mm 6 mps 751 mmHg 35%
    16:00 +39°C° 0 mm 6 mps 751 mmHg 38%
    17:00 +37°C° 0 mm 5 mps 751 mmHg 40%
    18:00 +34°C° 0 mm 3 mps 751 mmHg 49%
    19:00 +31°C° 0 mm 1 mps 751 mmHg 60%
    20:00 +26°C° 0 mm 0 mps 752 mmHg 70%
    21:00 +28°C° 0 mm 1 mps 752 mmHg 74%
    22:00 +28°C° 0 mm 2 mps 752 mmHg 78%
    23:00 +28°C° 0 mm 3 mps 753 mmHg 82%

    Day after tomorrow, 18 July, Thursday

    Time Temperature Precipitation Wind Pressure Humidity
    00:00 +28°C° 0 mm 3 mps 753 mmHg 84%
    01:00 +27°C° 0 mm 3 mps 753 mmHg 86%
    02:00 +27°C° 0 mm 2 mps 752 mmHg 88%
    03:00 +27°C° 0 mm 2 mps 753 mmHg 88%
    04:00 +27°C° 0 mm 2 mps 753 mmHg 88%
    05:00 +27°C° 0 mm 2 mps 753 mmHg 88%
    06:00 +28°C° 0 mm 2 mps 753 mmHg 78%
    07:00 +30°C° 0 mm 3 mps 753 mmHg 68%
    08:00 +33°C° 0 mm 3 mps 753 mmHg 58%
    09:00 +34°C° 0 mm 4 mps 753 mmHg 54%
    10:00 +35°C° 0 mm 4 mps 753 mmHg 50%
    11:00 +36°C° 0 mm 5 mps 753 mmHg 46%
    12:00 +35°C° 0 mm 5 mps 753 mmHg 48%
    13:00 +35°C° 0 mm 6 mps 753 mmHg 50%
    14:00 +34°C° 0 mm 6 mps 753 mmHg 52%
    15:00 +34°C° 0 mm 6 mps 753 mmHg 54%
    16:00 +33°C° 0 mm 6 mps 753 mmHg 57%
    17:00 +32°C° 0 mm 6 mps 753 mmHg 60%
    18:00 +30°C° 0 mm 5 mps 754 mmHg 66%
    19:00 +28°C° 0 mm 4 mps 754 mmHg 73%
    20:00 +27°C° 0 mm 4 mps 755 mmHg 79%
    21:00 +26°C° 0 mm 3 mps 755 mmHg 80%
    22:00 +26°C° 0 mm 2 mps 755 mmHg 82%
    23:00 +25°C° 0 mm 1 mps 755 mmHg 84%

    19 July, Friday

    Time Temperature Precipitation Wind Pressure Humidity
    00:00 +25°C° 0 mm 1 mps 755 mmHg 84%
    01:00 +25°C° 0 mm 1 mps 755 mmHg 85%
    02:00 +24°C° 0 mm 1 mps 755 mmHg 85%
    03:00 +24°C° 0 mm 1 mps 755 mmHg 85%
    04:00 +24°C° 0 mm 1 mps 755 mmHg 86%
    05:00 +24°C° 0 mm 1 mps 755 mmHg 86%
    06:00 +26°C° 0 mm 1 mps 756 mmHg 78%
    07:00 +27°C° 0 mm 1 mps 756 mmHg 70%
    08:00 +29°C° 0 mm 1 mps 756 mmHg 61%
    09:00 +30°C° 0 mm 2 mps 756 mmHg 56%
    10:00 +33°C° 0 mm 3 mps 756 mmHg 50%
    11:00 +34°C° 0 mm 4 mps 755 mmHg 44%
    12:00 +34°C° 0 mm 4 mps 755 mmHg 44%
    13:00 +34°C° 0 mm 5 mps 755 mmHg 45%
    14:00 +34°C° 0 mm 5 mps 755 mmHg 45%
    15:00 +33°C° 0 mm 5 mps 755 mmHg 49%
    16:00 +33°C° 0 mm 5 mps 754 mmHg 53%
    17:00 +32°C° 0 mm 6 mps 754 mmHg 57%
    18:00 +29°C° 0 mm 5 mps 755 mmHg 64%
    19:00 +28°C° 0 mm 4 mps 755 mmHg 71%
    20:00 +26°C° 0 mm 3 mps 756 mmHg 78%
    21:00 +26°C° 0 mm 2 mps 756 mmHg 79%
    22:00 +25°C° 0 mm 2 mps 756 mmHg 81%
    23:00 +25°C° 0 mm 1 mps 756 mmHg 82%

    20 July, Saturday

    Time Temperature Precipitation Wind Pressure Humidity
    00:00 +24°C° 0 mm 1 mps 756 mmHg 83%
    01:00 +24°C° 0 mm 1 mps 756 mmHg 84%
    02:00 +24°C° 0 mm 1 mps 756 mmHg 84%
    03:00 +23°C° 0 mm 1 mps 756 mmHg 85%
    04:00 +23°C° 0 mm 1 mps 756 mmHg 85%
    05:00 +23°C° 0 mm 2 mps 756 mmHg 86%
    06:00 +25°C° 0 mm 2 mps 756 mmHg 79%
    07:00 +27°C° 0 mm 2 mps 756 mmHg 72%
    08:00 +29°C° 0 mm 2 mps 757 mmHg 66%
    09:00 +30°C° 0 mm 3 mps 756 mmHg 60%
    10:00 +31°C° 0 mm 3 mps 756 mmHg 53%
    11:00 +34°C° 0 mm 4 mps 756 mmHg 47%
    12:00 +34°C° 0 mm 4 mps 756 mmHg 47%
    13:00 +34°C° 0 mm 5 mps 756 mmHg 47%
    14:00 +34°C° 0 mm 5 mps 755 mmHg 47%
    15:00 +33°C° 0 mm 5 mps 755 mmHg 51%
    16:00 +33°C° 0 mm 5 mps 755 mmHg 55%
    17:00 +32°C° 0 mm 5 mps 755 mmHg 58%
    18:00 +29°C° 0 mm 4 mps 755 mmHg 66%
    19:00 +28°C° 0 mm 3 mps 756 mmHg 74%
    20:00 +26°C° 0 mm 2 mps 756 mmHg 82%
    21:00 +26°C° 0 mm 2 mps 756 mmHg 83%
    22:00 +25°C° 0 mm 1 mps 756 mmHg 84%
    23:00 +25°C° 0 mm 1 mps 756 mmHg 85%

    21 July, Sunday

    Time Temperature Precipitation Wind Pressure Humidity
    00:00 +24°C° 0 mm 1 mps 756 mmHg 86%
    01:00 +24°C° 0 mm 1 mps 755 mmHg 86%
    02:00 +24°C° 0 mm 1 mps 755 mmHg 86%
    03:00 +24°C° 0 mm 1 mps 755 mmHg 87%
    04:00 +24°C° 0 mm 2 mps 755 mmHg 87%
    05:00 +24°C° 0 mm 2 mps 755 mmHg 87%
    06:00 +26°C° 0 mm 2 mps 755 mmHg 80%
    07:00 +28°C° 0 mm 3 mps 755 mmHg 72%
    08:00 +29°C° 0 mm 3 mps 755 mmHg 65%
    09:00 +31°C° 0 mm 3 mps 755 mmHg 59%
    10:00 +33°C° 0 mm 4 mps 755 mmHg 54%
    11:00 +34°C° 0 mm 4 mps 755 mmHg 49%
    12:00 +34°C° 0 mm 4 mps 755 mmHg 49%
    13:00 +35°C° 0 mm 5 mps 754 mmHg 49%
    14:00 +35°C° 0 mm 5 mps 754 mmHg 49%
    15:00 +34°C° 0 mm 5 mps 754 mmHg 51%
    16:00 +33°C° 0 mm 5 mps 754 mmHg 54%
    17:00 +33°C° 0 mm 5 mps 754 mmHg 57%
    18:00 +30°C° 0 mm 4 mps 754 mmHg 66%
    19:00 +28°C° 0 mm 3 mps 754 mmHg 74%
    20:00 +27°C° 0 mm 2 mps 755 mmHg 82%
    21:00 +26°C° 0 mm 2 mps 755 mmHg 83%
    22:00 +25°C° 0 mm 1 mps 755 mmHg 84%
    23:00 +23°C° 0 mm 0 mps 755 mmHg 84%
    Show more